Novato, CA

4:06 AM PST on November 13, 2019 (GMT -0800)
Gnoss

Weather History for KDVO - September, 2019

Change the Weather History Date:

Tuesday, September 17, 2019

  Actual Average (KAPC) Record (KAPC)
Temperature  
Mean Temperature 64 °F -  
Max Temperature 78 °F 81 °F 94 °F (2000)
Min Temperature 50 °F 53 °F 42 °F (1952)
Degree Days  
Heating Degree Days 1    
Growing Degree Days 14 (Base 50)    
Moisture  
Dew Point 51 °F    
Average Humidity 63    
Maximum Humidity 94    
Minimum Humidity 24    
Precipitation  
Precipitation 0.00 in - - ()
Sea Level Pressure  
Sea Level Pressure 30.01 in    
Wind  
Wind Speed 4 mph ()    
Max Wind Speed 17 mph    
Max Gust Speed 24 mph    
Visibility 9.8 miles    
Events      
Averages and records for this station are not official NWS values.
T = Trace of Precipitation, MM = Missing Value Source: Averaged Metar Reports

Daily Weather History Graph

Daily Weather History Graph

Search for Another Location

Airport or City:

Astronomy

Sep. 17, 2019 Rise Set
Actual Time 6:53 AM PDT 7:15 PM PDT
Civil Twilight 6:27 AM PDT 7:41 PM PDT
Nautical Twilight 5:56 AM PDT 8:12 PM PDT
Astronomical Twilight 5:24 AM PDT 8:44 PM PDT
Moon 9:23 PM PDT (9/17) 10:00 AM PDT (9/17)
Length of Visible Light 13h 14m
Length of Day
12h 21m
Waning Gibbous, 88% of the Moon is Illuminated
Sep 17
Waning Gibbous
Sep 21
Last Quarter
Sep 28
New
Oct 5
First Quarter
Oct 13
Full

Hourly Weather History & Observations

Time (PDT) Temp. Dew Point Humidity Pressure Visibility Wind Dir Wind Speed Gust Speed Precip Events Conditions
12:15 AM 62.6 °F 50.0 °F 63% 30.00 in 10.0 mi SSW 4.6 mph - N/A   Clear
12:35 AM 57.2 °F 48.2 °F 72% 30.00 in 10.0 mi NNE 5.8 mph - N/A   Clear
12:55 AM 57.2 °F 50.0 °F 77% 30.01 in 10.0 mi NE 3.5 mph - N/A   Clear
1:15 AM 55.4 °F 50.0 °F 82% 30.01 in 10.0 mi Calm Calm - N/A   Clear
1:35 AM 57.2 °F 50.0 °F 77% 30.01 in 10.0 mi Variable 3.5 mph - N/A   Clear
1:55 AM 57.2 °F 50.0 °F 77% 30.02 in 10.0 mi Calm Calm - N/A   Clear
2:15 AM 59.0 °F 50.0 °F 72% 30.02 in 10.0 mi Calm Calm - N/A   Clear
2:35 AM 57.2 °F 48.2 °F 72% 30.02 in 10.0 mi Calm Calm - N/A   Clear
3:15 AM 59.0 °F 50.0 °F 72% 30.02 in 10.0 mi Calm Calm - N/A   Clear
3:35 AM 57.2 °F 48.2 °F 72% 30.02 in 10.0 mi ENE 4.6 mph - N/A   Clear
3:55 AM 53.6 °F 48.2 °F 82% 30.02 in 10.0 mi NE 3.5 mph - N/A   Clear
4:15 AM 55.4 °F 50.0 °F 82% 30.02 in 10.0 mi Calm Calm - N/A   Clear
4:35 AM 53.6 °F 50.0 °F 88% 30.02 in 10.0 mi Calm Calm - N/A   Clear
4:55 AM 53.6 °F 50.0 °F 88% 30.02 in 10.0 mi Variable 3.5 mph - N/A   Clear
5:15 AM 55.4 °F 50.0 °F 82% 30.02 in 10.0 mi Calm Calm - N/A   Clear
5:35 AM 55.4 °F 50.0 °F 82% 30.02 in 10.0 mi South 3.5 mph - N/A   Clear
5:55 AM 53.6 °F 50.0 °F 88% 30.03 in 10.0 mi Calm Calm - N/A   Clear
6:15 AM 53.6 °F 48.2 °F 82% 30.03 in 10.0 mi East 4.6 mph - N/A   Clear
7:15 AM 50.0 °F 48.2 °F 94% 30.05 in 10.0 mi Calm Calm - N/A   Clear
7:35 AM 51.8 °F 48.2 °F 88% 30.05 in 6.0 mi Calm Calm - N/A   Clear
7:55 AM 53.6 °F 50.0 °F 88% 30.05 in 7.0 mi Calm Calm - N/A   Clear
8:15 AM 59.0 °F 51.8 °F 77% 30.06 in 10.0 mi Calm Calm - N/A   Clear
8:35 AM 60.8 °F 51.8 °F 72% 30.06 in 10.0 mi Calm Calm - N/A   Clear
8:55 AM 62.6 °F 51.8 °F 68% 30.07 in 10.0 mi Calm Calm - N/A   Clear
9:15 AM 64.4 °F 51.8 °F 64% 30.07 in 10.0 mi North 6.9 mph - N/A   Clear
9:35 AM 66.2 °F 51.8 °F 60% 30.07 in 10.0 mi NNW 9.2 mph - N/A   Clear
9:55 AM 68.0 °F 51.8 °F 56% 30.07 in 10.0 mi North 9.2 mph - N/A   Clear
10:15 AM 69.8 °F 50.0 °F 49% 30.06 in 10.0 mi North 6.9 mph - N/A   Clear
10:55 AM 71.6 °F 50.0 °F 46% 30.06 in 10.0 mi South 5.8 mph - N/A   Clear
11:15 AM 71.6 °F 50.0 °F 46% 30.06 in 10.0 mi SW 4.6 mph - N/A   Clear
11:35 AM 75.2 °F 50.0 °F 41% 30.06 in 10.0 mi Variable 4.6 mph - N/A   Clear
11:55 AM 75.2 °F 50.0 °F 41% 30.05 in 10.0 mi Variable 3.5 mph - N/A   Clear
12:15 PM 75.2 °F 50.0 °F 41% 30.05 in 10.0 mi Variable 5.8 mph 12.7 mph N/A   Clear
12:35 PM 77.0 °F 48.2 °F 36% 30.04 in 9.0 mi Calm Calm - N/A   Clear
12:55 PM 77.0 °F 48.2 °F 36% 30.04 in 8.0 mi Calm Calm - N/A   Clear
1:15 PM 78.8 °F 44.6 °F 30% 30.03 in 9.0 mi South 5.8 mph - N/A   Clear
1:35 PM 78.8 °F 46.4 °F 32% 30.02 in 8.0 mi SW 11.5 mph - N/A   Clear
1:55 PM 78.8 °F 46.4 °F 32% 30.02 in 10.0 mi WSW 12.7 mph 19.6 mph N/A   Clear
2:15 PM 78.8 °F 44.6 °F 30% 30.02 in 10.0 mi WSW 15.0 mph - N/A   Clear
2:35 PM 78.8 °F 42.8 °F 28% 30.02 in 10.0 mi West 11.5 mph 19.6 mph N/A   Clear
2:55 PM 78.8 °F 39.2 °F 24% 30.01 in 10.0 mi West 13.8 mph 21.9 mph N/A   Clear
3:15 PM 78.8 °F 41.0 °F 26% 30.01 in 10.0 mi SW 15.0 mph 21.9 mph N/A   Clear
3:35 PM 77.0 °F 41.0 °F 28% 30.01 in 10.0 mi West 16.1 mph - N/A   Clear
3:55 PM 77.0 °F 42.8 °F 29% 30.00 in 10.0 mi WSW 17.3 mph - N/A   Clear
4:15 PM 75.2 °F 46.4 °F 36% 30.00 in 10.0 mi West 13.8 mph 20.7 mph N/A   Clear
4:35 PM 75.2 °F 46.4 °F 36% 29.99 in 10.0 mi WSW 12.7 mph 24.2 mph N/A   Clear
4:55 PM 75.2 °F 48.2 °F 38% 29.99 in 10.0 mi West 15.0 mph 24.2 mph N/A   Clear
5:15 PM 73.4 °F 50.0 °F 44% 29.99 in 10.0 mi West 8.1 mph 18.4 mph N/A   Clear
5:35 PM 73.4 °F 51.8 °F 47% 29.99 in 10.0 mi Variable 6.9 mph - N/A   Clear
5:55 PM 71.6 °F 51.8 °F 50% 29.99 in 10.0 mi Variable 6.9 mph 18.4 mph N/A   Clear
6:15 PM 69.8 °F 53.6 °F 56% 29.99 in 10.0 mi Variable 4.6 mph - N/A   Clear
6:35 PM 68.0 °F 53.6 °F 60% 29.99 in 10.0 mi Variable 3.5 mph - N/A   Clear
6:55 PM 66.2 °F 55.4 °F 68% 29.99 in 10.0 mi North 4.6 mph - N/A   Clear
7:15 PM 66.2 °F 55.4 °F 68% 29.99 in 10.0 mi NNE 4.6 mph - N/A   Clear
7:35 PM 66.2 °F 55.4 °F 68% 29.98 in 10.0 mi Variable 4.6 mph - N/A   Clear
7:55 PM 64.4 °F 55.4 °F 73% 29.98 in 10.0 mi ENE 3.5 mph - N/A   Clear
8:15 PM 64.4 °F 55.4 °F 73% 29.98 in 10.0 mi Variable 6.9 mph 16.1 mph N/A   Clear
8:35 PM 64.4 °F 57.2 °F 77% 29.98 in 10.0 mi Variable 5.8 mph 13.8 mph N/A   Clear
8:55 PM 64.4 °F 59.0 °F 83% 29.99 in 10.0 mi WNW 11.5 mph 19.6 mph N/A   Clear
9:15 PM 64.4 °F 59.0 °F 83% 29.98 in 10.0 mi WNW 8.1 mph 21.9 mph N/A   Clear
9:55 PM 64.4 °F 59.0 °F 83% 29.97 in 10.0 mi NW 17.3 mph 23.0 mph N/A   Clear
10:15 PM 64.4 °F 57.2 °F 77% 29.97 in 10.0 mi WNW 12.7 mph - N/A   Clear
10:35 PM 64.4 °F 57.2 °F 77% 29.96 in 10.0 mi Variable 5.8 mph - N/A   Clear
10:55 PM 64.4 °F 57.2 °F 77% 29.96 in 10.0 mi Variable 5.8 mph 13.8 mph N/A   Clear
11:15 PM 64.4 °F 57.2 °F 77% 29.96 in 10.0 mi Variable 3.5 mph 12.7 mph N/A   Clear
11:35 PM 64.4 °F 59.0 °F 83% 29.96 in 10.0 mi SE 5.8 mph - N/A   Clear
11:55 PM 64.4 °F 59.0 °F 83% 29.96 in 10.0 mi Variable 6.9 mph - N/A   Clear